| time (UTC) | temp F | wind direction | speed MPH | gust MPH | rain 1hr in | rain 24hr in | rain mn in | humidity % | barometer mb |
| 20260831231506 | 82 | 308 | 2.0 | 0.0 | 0.00 | 0.00 | 0.00 | 20 | 1010.2 |
| 20260831230004 | 83 | 276 | 1.0 | 0.0 | 0.00 | 0.00 | 0.00 | 19 | 1010.4 |
| 20260831224544 | 82 | 309 | 0.0 | 0.0 | 0.00 | 0.00 | 0.00 | 19 | 1010.7 |
| 20260831223045 | 82 | 310 | 2.0 | 0.0 | 0.00 | 0.00 | 0.00 | 19 | 1011.0 |
| 20260831221525 | 83 | 186 | 2.0 | 0.0 | 0.00 | 0.00 | 0.00 | 19 | 1011.3 |
| 20260831220023 | 81 | 93 | 3.0 | 0.0 | 0.00 | 0.00 | 0.00 | 19 | 1011.5 |
| 20260831214504 | 82 | 132 | 3.0 | 0.0 | 0.00 | 0.00 | 0.00 | 20 | 1011.7 |
| 20260831213100 | 82 | 204 | 2.0 | 0.0 | 0.00 | 0.00 | 0.00 | 20 | 1012.0 |
| 20260831211610 | 81 | 275 | 2.0 | 0.0 | 0.00 | 0.00 | 0.00 | 21 | 1012.1 |
| 20260831210046 | 80 | 87 | 2.0 | 0.0 | 0.00 | 0.00 | 0.00 | 21 | 1012.3 |
| 20260831204536 | 81 | 143 | 2.0 | 0.0 | 0.00 | 0.00 | 0.00 | 21 | 1012.4 |
| 20260831203016 | 80 | 86 | 1.0 | 0.0 | 0.00 | 0.00 | 0.00 | 22 | 1012.6 |
| 20260831201516 | 79 | 87 | 2.0 | 0.0 | 0.00 | 0.00 | 0.00 | 23 | 1012.9 |
| 20260831200054 | 78 | 84 | 2.0 | 0.0 | 0.00 | 0.00 | 0.00 | 22 | 1013.2 |
| 20260831194627 | 77 | 186 | 1.0 | 0.0 | 0.00 | 0.00 | 0.00 | 23 | 1013.3 |
| 20260831193034 | 77 | 284 | 1.0 | 0.0 | 0.00 | 0.00 | 0.00 | 23 | 1013.5 |
| 20260831191534 | 76 | 282 | 2.0 | 0.0 | 0.00 | 0.00 | 0.00 | 24 | 1013.7 |
| 20260831190009 | 75 | 175 | 1.0 | 0.0 | 0.00 | 0.00 | 0.00 | 25 | 1014.0 |
| 20260831184513 | 75 | 180 | 2.0 | 0.0 | 0.00 | 0.00 | 0.00 | 25 | 1014.2 |
| 20260831183059 | 74 | 144 | 1.0 | 0.0 | 0.00 | 0.00 | 0.00 | 27 | 1014.4 |
| 20260831181545 | 74 | 145 | 1.0 | 0.0 | 0.00 | 0.00 | 0.00 | 28 | 1014.7 |
| 20260831180031 | 73 | 146 | 1.0 | 0.0 | 0.00 | 0.00 | 0.00 | 30 | 1014.9 |
| 20260831174519 | 71 | 150 | 0.0 | 0.0 | 0.00 | 0.00 | 0.00 | 32 | 1015.0 |
| 20260831173106 | 70 | 150 | 1.0 | 0.0 | 0.00 | 0.00 | 0.00 | 33 | 1015.2 |
| 20260831171556 | 69 | 277 | 1.0 | 0.0 | 0.00 | 0.00 | 0.00 | 35 | 1015.4 |
| 20260831170036 | 66 | 279 | 0.0 | 0.0 | 0.00 | 0.00 | 0.00 | 38 | 1015.5 |
| 20260831164536 | 64 | 279 | 0.0 | 0.0 | 0.00 | 0.00 | 0.00 | 39 | 1015.8 |
| 20260831163014 | 62 | 279 | 0.0 | 0.0 | 0.00 | 0.00 | 0.00 | 44 | 1015.9 |
| 20260831161512 | 60 | 279 | 0.0 | 0.0 | 0.00 | 0.00 | 0.00 | 47 | 1016.1 |
| 20260831160055 | 59 | 279 | 0.0 | 0.0 | 0.00 | 0.00 | 0.00 | 52 | 1016.3 |
| 20260831154551 | 56 | 279 | 0.0 | 0.0 | 0.00 | 0.00 | 0.00 | 56 | 1016.3 |
| 20260831153050 | 52 | 279 | 0.0 | 0.0 | 0.00 | 0.00 | 0.00 | 65 | 1016.4 |
| 20260831151555 | 50 | 279 | 0.0 | 0.0 | 0.00 | 0.00 | 0.00 | 70 | 1016.3 |
| 20260831150040 | 47 | 279 | 0.0 | 0.0 | 0.00 | 0.00 | 0.00 | 78 | 1016.4 |
| 20260831144548 | 42 | 279 | 0.0 | 0.0 | 0.00 | 0.00 | 0.00 | 79 | 1016.4 |
| 20260831143036 | 41 | 279 | 0.0 | 0.0 | 0.00 | 0.00 | 0.00 | 82 | 1016.4 |
| 20260831141525 | 38 | 279 | 0.0 | 0.0 | 0.00 | 0.00 | 0.00 | 84 | 1016.4 |
| 20260831140004 | 37 | 279 | 0.0 | 0.0 | 0.00 | 0.00 | 0.00 | 84 | 1016.4 |
| 20260831134504 | 37 | 279 | 0.0 | 0.0 | 0.00 | 0.00 | 0.00 | 84 | 1016.2 |
| 20260831133046 | 36 | 279 | 0.0 | 0.0 | 0.00 | 0.00 | 0.00 | 84 | 1016.1 |
| 20260831131544 | 35 | 279 | 0.0 | 0.0 | 0.00 | 0.00 | 0.00 | 83 | 1016.0 |
| 20260831130025 | 35 | 279 | 0.0 | 0.0 | 0.00 | 0.00 | 0.00 | 82 | 1016.0 |
| 20260831124524 | 36 | 279 | 0.0 | 0.0 | 0.00 | 0.00 | 0.00 | 81 | 1016.0 |
| 20260831123004 | 37 | 279 | 0.0 | 0.0 | 0.00 | 0.00 | 0.00 | 82 | 1016.0 |
| 20260831121503 | 36 | 279 | 0.0 | 0.0 | 0.00 | 0.00 | 0.00 | 81 | 1015.9 |
| 20260831120046 | 37 | 279 | 0.0 | 0.0 | 0.00 | 0.00 | 0.00 | 81 | 1015.7 |
| 20260831114543 | 37 | 279 | 0.0 | 0.0 | 0.00 | 0.00 | 0.00 | 80 | 1015.9 |
| 20260831113023 | 38 | 279 | 0.0 | 0.0 | 0.00 | 0.00 | 0.00 | 80 | 1015.8 |
| 20260831111523 | 38 | 279 | 0.0 | 0.0 | 0.00 | 0.00 | 0.00 | 80 | 1015.8 |
| 20260831110005 | 38 | 279 | 0.0 | 0.0 | 0.00 | 0.00 | 0.00 | 80 | 1015.8 |
| 20260831104509 | 38 | 279 | 0.0 | 0.0 | 0.00 | 0.00 | 0.00 | 79 | 1015.8 |
| 20260831103052 | 38 | 279 | 0.0 | 0.0 | 0.00 | 0.00 | 0.00 | 78 | 1015.8 |
| 20260831101546 | 39 | 279 | 0.0 | 0.0 | 0.00 | 0.00 | 0.00 | 78 | 1016.0 |
| 20260831100027 | 39 | 279 | 0.0 | 0.0 | 0.00 | 0.00 | 0.00 | 78 | 1015.9 |
| 20260831094530 | 39 | 279 | 0.0 | 0.0 | 0.00 | 0.00 | 0.00 | 77 | 1015.9 |
| 20260831093009 | 39 | 279 | 0.0 | 0.0 | 0.00 | 0.00 | 0.00 | 77 | 1016.1 |
| 20260831091508 | 40 | 279 | 0.0 | 0.0 | 0.00 | 0.00 | 0.00 | 77 | 1016.1 |
| 20260831090050 | 40 | 279 | 0.0 | 0.0 | 0.00 | 0.00 | 0.00 | 76 | 1016.2 |
| 20260831084602 | 40 | 279 | 0.0 | 0.0 | 0.00 | 0.00 | 0.00 | 76 | 1016.3 |
| 20260831083038 | 40 | 279 | 0.0 | 0.0 | 0.00 | 0.00 | 0.00 | 75 | 1016.3 |
| 20260831081535 | 40 | 279 | 0.0 | 0.0 | 0.00 | 0.00 | 0.00 | 74 | 1016.4 |
| 20260831080014 | 41 | 279 | 0.0 | 0.0 | 0.00 | 0.00 | 0.00 | 73 | 1016.3 |
| 20260831074531 | 42 | 279 | 0.0 | 0.0 | 0.00 | 0.00 | 0.00 | 73 | 1016.3 |
| 20260831073138 | 43 | 279 | 0.0 | 0.0 | 0.00 | 0.00 | 0.00 | 72 | 1016.3 |
| 20260831071555 | 43 | 279 | 0.0 | 0.0 | 0.00 | 0.00 | 0.00 | 70 | 1016.1 |
| 20260831070038 | 44 | 279 | 0.0 | 0.0 | 0.00 | 0.00 | 0.00 | 70 | 1016.1 |
| 20260831064541 | 45 | 279 | 0.0 | 0.0 | 0.00 | 0.00 | 0.00 | 68 | 1016.1 |
| 20260831063021 | 45 | 279 | 0.0 | 0.0 | 0.00 | 0.00 | 0.00 | 68 | 1015.9 |
| 20260831061530 | 46 | 279 | 0.0 | 0.0 | 0.00 | 0.00 | 0.00 | 67 | 1015.9 |
| 20260831060008 | 46 | 279 | 0.0 | 0.0 | 0.00 | 0.00 | 0.00 | 66 | 1016.0 |
| 20260831054508 | 47 | 279 | 0.0 | 0.0 | 0.00 | 0.00 | 0.00 | 65 | 1016.1 |
| 20260831053017 | 47 | 279 | 0.0 | 0.0 | 0.00 | 0.00 | 0.00 | 64 | 1016.0 |
| 20260831051513 | 48 | 279 | 0.0 | 0.0 | 0.00 | 0.00 | 0.00 | 62 | 1016.1 |
| 20260831050026 | 49 | 279 | 0.0 | 0.0 | 0.00 | 0.00 | 0.00 | 61 | 1016.1 |
| 20260831044507 | 50 | 279 | 0.0 | 0.0 | 0.00 | 0.00 | 0.00 | 58 | 1016.1 |
| 20260831043005 | 51 | 279 | 0.0 | 0.0 | 0.00 | 0.00 | 0.00 | 57 | 1016.0 |
| 20260831041506 | 51 | 279 | 0.0 | 0.0 | 0.00 | 0.00 | 0.00 | 56 | 1015.8 |
| 20260831040052 | 53 | 279 | 0.0 | 0.0 | 0.00 | 0.00 | 0.00 | 52 | 1015.8 |
| 20260831034547 | 55 | 279 | 0.0 | 0.0 | 0.00 | 0.00 | 0.00 | 50 | 1015.8 |
| 20260831033029 | 56 | 279 | 0.0 | 0.0 | 0.00 | 0.00 | 0.00 | 48 | 1015.8 |
| 20260831031529 | 58 | 279 | 0.0 | 0.0 | 0.00 | 0.00 | 0.00 | 45 | 1015.7 |
| 20260831030024 | 59 | 279 | 0.0 | 0.0 | 0.00 | 0.00 | 0.00 | 42 | 1015.5 |
| 20260831024511 | 61 | 279 | 0.0 | 0.0 | 0.00 | 0.00 | 0.00 | 39 | 1015.3 |
| 20260831023052 | 63 | 279 | 0.0 | 0.0 | 0.00 | 0.00 | 0.00 | 36 | 1015.1 |
| 20260831021553 | 65 | 279 | 0.0 | 0.0 | 0.00 | 0.00 | 0.00 | 34 | 1015.0 |
| 20260831020050 | 66 | 279 | 0.0 | 0.0 | 0.00 | 0.00 | 0.00 | 32 | 1015.0 |
| 20260831014551 | 67 | 279 | 0.0 | 0.0 | 0.00 | 0.00 | 0.00 | 31 | 1015.1 |
| 20260831013033 | 68 | 279 | 1.0 | 0.0 | 0.00 | 0.00 | 0.00 | 30 | 1015.1 |
| 20260831011537 | 68 | 279 | 1.0 | 0.0 | 0.00 | 0.00 | 0.00 | 28 | 1015.2 |
| 20260831010011 | 69 | 279 | 1.0 | 0.0 | 0.00 | 0.00 | 0.00 | 29 | 1015.3 |
| 20260831004515 | 69 | 279 | 2.0 | 0.0 | 0.00 | 0.00 | 0.00 | 28 | 1015.4 |
| 20260831003053 | 70 | 279 | 1.0 | 0.0 | 0.00 | 0.00 | 0.00 | 29 | 1015.4 |
| 20260831001550 | 69 | 279 | 2.0 | 0.0 | 0.00 | 0.00 | 0.00 | 30 | 1015.5 |
| 20260831000039 | 69 | 278 | 4.0 | 0.0 | 0.00 | 0.00 | 0.00 | 31 | 1015.6 |
| 20260830234531 | 69 | 286 | 6.0 | 0.0 | 0.00 | 0.00 | 0.00 | 31 | 1015.7 |
| 20260830233020 | 69 | 276 | 6.0 | 0.0 | 0.00 | 0.00 | 0.00 | 31 | 1015.8 |